Theta_e
324 325 325 325 325 323 322 321 320 322 325 330 327 321 323 323 318 323 326 324 328 332 332 337 339 339 341 340 340 344 348 350 350 350 349 348 345 346 348 347 341 336 336 336 336 336 336 335 331 328 327 328 331 332 331 331 330 331 331 329 329 328 326
323 323 324 324 323 324 323 320 321 324 322 328 331 324 322 321 318 322 324 323 327 326 326 337 343 341 342 341 340 344 348 350 350 349 349 347 345 345 346 346 342 338 337 336 336 336 335 332 328 326 327 329 330 330 330 330 331 331 330 329 328 328 325
324 324 324 324 323 323 323 323 324 324 320 325 329 325 321 320 318 321 322 323 327 326 326 335 344 347 346 343 342 344 347 350 349 349 349 347 346 345 345 346 343 339 338 336 336 336 333 329 326 326 328 329 329 329 329 331 332 331 329 328 329 328 325
323 325 325 324 323 323 323 324 324 324 325 327 326 323 320 319 320 320 321 322 324 328 334 337 342 352 350 344 343 345 347 349 349 349 349 347 346 345 345 345 342 339 337 336 335 335 330 326 326 328 329 329 329 329 331 332 332 330 328 328 328 327 324
322 324 325 325 325 325 323 323 323 323 324 324 323 322 321 320 322 321 320 320 320 329 344 347 347 351 348 344 345 346 347 349 348 348 348 347 347 345 345 345 342 339 337 336 335 332 328 326 327 328 329 329 330 330 331 331 331 329 328 328 328 326 323
321 323 326 326 326 326 325 324 324 323 324 323 321 321 322 321 322 322 321 318 319 333 347 348 347 345 344 346 346 347 348 347 347 347 347 347 347 346 346 345 342 339 337 336 335 330 327 327 328 328 329 330 331 331 331 330 328 326 326 327 327 324 321
325 325 326 324 323 325 325 325 326 325 328 326 320 319 322 323 322 323 322 319 322 335 338 338 341 340 341 344 347 347 347 346 345 346 346 347 347 346 346 345 342 339 336 335 333 329 327 327 328 329 330 330 331 331 329 326 324 324 325 325 324 322 320
328 325 326 325 323 324 324 325 326 324 326 326 324 327 330 325 321 323 321 319 323 334 335 335 340 339 340 341 344 345 345 345 345 344 344 346 346 346 346 345 342 338 336 335 332 328 327 327 329 330 330 331 331 328 325 323 322 323 323 322 322 321 320
325 323 325 325 324 326 327 327 325 325 327 327 326 331 332 325 325 325 321 318 323 335 339 339 339 340 340 339 341 343 344 344 343 342 343 344 344 345 345 344 342 338 336 334 331 328 327 328 329 330 331 331 328 325 323 322 322 322 322 321 321 320 319
320 321 323 324 326 327 327 328 325 325 328 326 327 330 326 323 326 326 321 320 326 337 344 341 340 340 341 342 340 340 341 341 341 341 341 342 343 344 344 343 341 338 336 334 331 328 328 329 329 330 330 328 325 323 324 323 322 321 321 320 320 320 319
324 328 331 331 331 328 325 327 326 324 326 327 331 330 324 325 326 323 327 333 328 330 340 342 344 344 344 344 342 340 340 339 339 340 339 340 341 342 343 342 339 337 336 334 331 329 329 329 330 330 328 324 323 325 325 324 322 321 320 320 320 319 320
331 334 336 333 333 329 327 328 325 324 327 327 328 327 328 333 325 319 337 347 331 327 336 341 345 347 347 347 343 340 340 338 337 338 337 339 339 340 341 340 338 337 336 334 331 330 329 330 330 328 325 323 324 326 326 325 323 321 320 320 320 320 320
329 329 328 330 332 331 330 330 326 325 327 326 327 331 334 335 325 324 343 349 335 330 334 335 337 342 343 343 339 338 338 337 336 337 337 338 338 338 339 338 338 337 337 334 331 330 329 330 329 325 322 323 325 326 326 324 322 320 320 320 320 319 320
326 326 328 329 330 329 328 328 328 327 327 326 328 332 333 331 329 331 338 340 336 333 332 333 334 333 331 331 331 333 336 336 335 336 337 338 337 338 338 338 338 338 337 335 332 330 329 329 327 323 322 324 326 327 326 324 321 320 320 320 320 320 320
326 327 329 328 328 329 327 327 329 328 326 326 327 329 330 329 330 334 334 334 335 333 332 333 330 328 328 330 332 334 336 336 335 337 337 338 337 338 338 338 338 337 336 334 331 330 330 328 325 322 324 326 326 327 326 323 320 320 320 321 321 321 321
324 326 328 327 327 328 325 326 329 328 326 327 328 329 331 330 332 337 334 329 331 334 336 334 332 332 333 334 336 336 335 335 335 337 337 337 337 337 338 338 338 337 336 333 330 330 329 327 324 323 326 327 326 325 324 322 320 320 321 322 323 322 322
323 326 328 327 327 325 323 326 331 331 329 329 328 329 332 333 333 333 330 327 332 340 340 338 338 338 337 337 337 336 334 334 334 335 336 336 336 337 338 337 337 336 335 332 330 329 328 325 324 324 326 327 325 324 323 321 321 321 322 323 323 323 324
323 327 328 327 324 322 324 330 333 331 329 329 328 329 333 335 333 331 330 332 338 341 338 338 339 338 337 336 334 332 332 331 332 334 334 335 335 337 337 336 335 335 334 331 330 329 327 325 325 325 326 327 325 323 323 322 322 322 323 323 324 325 325
326 327 327 324 322 324 330 333 330 328 328 330 331 333 335 334 333 335 334 333 337 339 336 334 334 333 332 331 330 331 331 330 331 332 333 334 335 335 336 335 334 333 332 331 330 328 327 326 326 327 327 326 325 324 323 323 323 323 323 323 324 326 327
327 327 325 323 325 330 335 333 328 327 328 330 329 329 333 335 334 334 334 334 336 337 334 332 332 330 330 331 331 331 331 330 331 332 332 334 334 335 335 333 332 332 331 331 330 328 327 326 326 326 327 326 325 324 324 324 323 324 324 323 324 325 328
328 326 324 325 328 329 331 334 333 331 331 334 331 327 332 341 338 333 335 338 338 337 334 333 332 330 332 335 334 331 331 331 332 331 332 333 335 334 334 332 331 331 331 330 329 328 327 326 326 326 326 327 325 324 324 325 324 324 324 324 324 325 327
328 327 324 325 325 324 330 338 337 331 328 334 335 328 330 341 339 331 333 339 339 338 336 333 333 333 335 337 336 333 332 331 332 331 332 333 334 334 332 331 331 331 330 331 329 328 327 327 326 327 327 327 326 325 325 325 325 324 324 325 324 325 326
327 326 324 325 326 326 335 341 335 327 324 329 332 326 326 337 337 329 331 337 338 339 336 334 335 336 334 334 335 333 332 332 333 332 331 332 332 332 332 332 331 331 330 330 329 328 328 327 327 327 328 328 327 325 325 326 325 325 325 325 325 325 326
326 326 324 326 326 329 338 339 329 323 325 328 328 322 324 334 334 327 329 335 336 336 335 334 337 338 335 335 335 333 332 333 333 332 332 332 332 332 332 331 330 330 331 330 329 328 328 328 328 327 328 328 327 325 325 326 326 325 325 325 325 325 324
326 325 324 324 326 331 335 332 325 323 326 327 324 322 327 331 328 326 329 331 331 332 333 334 338 337 335 333 333 332 333 334 333 333 332 332 332 332 331 331 330 330 330 329 329 329 328 329 328 328 328 329 327 326 326 326 327 326 325 326 325 324 323
325 326 325 323 325 329 329 326 324 324 325 326 326 327 329 328 327 328 329 329 330 331 330 333 335 333 331 331 332 333 333 333 333 333 333 332 332 331 331 331 330 329 329 330 329 329 329 329 328 328 328 328 328 326 326 327 327 327 327 326 325 324 324
325 325 324 321 323 326 325 325 327 326 326 328 328 328 328 326 327 329 328 329 331 331 330 331 332 330 330 331 332 332 332 332 333 332 332 332 331 330 330 330 330 330 330 330 330 330 330 330 329 329 328 328 328 328 326 327 328 328 328 327 325 325 325
323 322 324 325 327 327 325 326 329 328 328 328 326 326 329 328 326 328 328 329 331 330 331 332 331 330 330 330 331 331 331 331 331 331 331 330 330 330 330 330 330 330 329 330 330 330 330 330 330 330 329 328 328 327 327 328 328 328 329 327 326 325 325
325 325 327 329 329 327 324 325 327 327 326 326 325 325 328 328 327 327 328 330 331 331 331 332 331 330 330 330 330 330 330 330 330 330 330 330 330 330 329 330 330 330 330 330 330 330 330 330 330 330 329 328 328 327 328 328 329 328 328 326 326 326 325
328 326 327 328 327 326 325 325 325 325 325 326 325 325 326 327 328 329 329 330 332 331 331 332 332 331 330 330 330 329 329 330 329 329 329 328 328 328 328 329 328 329 329 329 329 329 330 330 331 331 330 328 327 328 328 328 328 328 327 326 326 326 325
326 326 329 329 327 326 326 325 325 326 326 326 326 326 327 327 329 330 330 331 332 332 331 332 332 331 330 330 330 329 329 328 328 327 327 326 326 326 326 326 326 327 327 327 328 328 329 328 330 331 330 328 328 328 328 327 327 326 326 326 326 326 325
326 328 331 327 324 324 325 324 325 327 327 327 327 327 328 329 330 330 331 332 332 332 331 331 331 331 329 329 329 328 327 326 326 325 324 324 324 324 324 324 324 325 325 325 325 326 327 328 329 330 329 328 328 327 326 325 325 325 326 326 326 325 325
326 328 328 324 323 326 326 325 326 328 327 327 327 327 329 329 329 330 330 331 331 331 330 330 330 330 329 328 327 326 324 324 324 324 323 323 323 323 323 323 323 323 324 325 325 325 326 327 328 328 328 327 327 326 324 323 324 325 326 326 326 325 325
325 326 325 322 322 325 324 323 324 326 327 327 326 327 328 328 327 327 328 328 330 330 329 329 329 329 328 326 325 324 324 324 324 323 323 322 322 322 322 322 322 324 324 325 325 325 325 326 327 327 327 326 325 324 323 323 324 325 325 325 325 324 324
323 323 322 321 322 323 323 322 323 324 326 326 326 326 327 327 327 327 327 327 328 328 327 327 326 326 326 325 324 324 324 323 322 322 321 320 320 320 321 322 323 324 324 324 324 324 324 325 325 325 324 324 323 322 323 324 325 325 325 325 324 323 323
321 321 318 318 319 320 319 319 321 322 324 326 326 325 326 326 326 327 326 326 327 326 325 325 325 325 324 324 323 323 322 321 321 320 319 320 321 321 322 323 324 324 324 324 323 323 323 324 324 323 323 322 322 323 324 325 325 325 325 324 323 323 323
319 318 316 314 315 314 313 315 321 324 324 324 325 325 326 326 325 326 325 326 325 325 324 325 324 324 323 323 321 321 320 320 320 320 321 322 322 323 323 323 323 323 323 323 323 322 322 322 322 322 322 322 322 323 325 326 325 325 324 324 323 323 322
Wind_Speed
1 3 4 2 0 3 3 2 3 1 1 2 3 2 2 0 2 2 2 3 3 2 3 2 2 5 5 6 9 13 14 15 18 21 28 33 34 35 35 33 31 28 25 23 21 18 16 13 10 9 10 10 9 10 10 10 12 13 13 14 14 15 15
3 2 7 7 4 1 3 4 6 5 1 1 2 1 2 1 3 2 2 4 3 2 2 1 2 6 7 6 9 12 13 16 20 22 29 35 36 36 36 33 31 29 26 24 21 18 16 12 9 9 10 9 9 9 10 11 13 13 13 13 13 14 15
4 2 4 6 5 5 2 4 6 4 2 1 1 1 2 2 3 2 2 3 3 4 3 1 3 7 7 6 8 11 14 18 20 23 30 37 37 36 37 34 32 30 27 24 21 18 15 11 9 10 10 9 8 9 11 13 13 13 13 13 13 14 14
2 2 3 5 4 5 4 5 5 1 1 1 1 1 1 2 2 1 1 1 3 4 3 3 5 5 6 8 9 11 15 19 21 22 29 37 38 38 39 36 33 31 27 23 21 17 14 11 10 11 10 9 9 10 12 13 13 13 12 13 13 13 13
3 4 3 5 6 6 5 6 4 1 2 1 1 2 1 1 2 1 2 3 3 2 3 5 6 4 6 10 10 11 15 18 20 21 27 36 40 40 39 38 34 31 27 24 20 17 14 12 12 12 11 9 10 11 12 13 13 13 12 12 13 13 13
5 2 2 2 2 3 4 5 5 4 4 3 2 2 1 0 1 1 1 4 4 1 2 4 4 2 6 11 11 11 15 18 20 23 28 34 39 40 39 37 34 30 27 24 21 18 16 14 14 13 11 10 10 11 12 13 13 12 12 12 13 13 13
2 2 3 2 2 0 2 1 2 4 4 4 4 4 3 2 1 1 1 3 3 1 1 3 3 3 5 9 11 12 14 18 22 25 27 31 35 37 37 35 33 30 27 23 21 18 17 16 15 13 11 10 10 10 12 12 12 11 12 12 12 12 12
1 2 2 2 1 1 2 0 1 3 2 2 2 1 2 3 3 3 2 3 3 2 1 2 4 5 7 8 12 13 13 16 22 25 27 29 33 34 34 34 32 29 26 24 22 19 18 17 15 13 12 10 9 10 11 12 11 11 12 12 12 12 12
2 2 2 2 2 3 3 1 2 2 3 6 4 3 2 2 3 3 3 6 3 1 1 2 2 4 6 8 11 13 13 14 19 24 28 30 31 33 33 33 32 29 28 26 22 20 19 17 15 13 11 9 8 8 9 10 11 11 12 12 12 12 12
6 6 5 4 4 3 2 3 4 3 5 7 4 3 2 4 3 3 4 6 3 1 0 2 2 3 6 7 9 12 14 14 16 20 27 30 31 33 33 32 32 30 29 26 22 20 19 17 15 13 10 8 7 8 8 9 11 11 12 12 12 12 12
6 5 3 0 2 5 4 5 7 5 4 5 4 3 3 4 4 4 5 3 3 3 3 3 3 5 6 6 8 11 14 17 18 21 25 29 30 32 32 32 32 31 29 27 23 21 19 17 15 12 9 8 8 8 7 9 11 11 12 12 12 12 12
2 1 2 0 1 5 5 7 9 6 5 6 6 4 3 4 4 5 4 3 4 6 5 6 6 5 6 6 9 12 15 20 22 23 24 27 28 29 30 32 33 32 30 28 24 22 20 17 15 12 10 10 10 8 7 9 11 11 11 12 12 12 11
2 2 1 0 0 2 3 7 10 8 8 9 8 5 4 6 5 5 1 6 7 7 5 7 7 4 5 8 11 14 17 20 22 23 24 27 28 29 30 33 34 32 31 29 26 23 20 17 15 12 11 12 11 8 8 9 11 11 11 12 12 11 11
4 2 0 0 2 4 4 4 6 6 7 7 5 3 4 6 6 4 0 5 9 8 6 10 11 9 9 12 13 14 15 18 21 23 25 26 29 31 33 34 34 32 31 29 26 22 20 17 15 13 13 13 11 8 9 10 10 11 11 12 11 11 11
3 2 2 3 3 4 5 4 3 3 4 4 3 2 3 4 5 4 3 5 9 7 7 11 16 14 12 12 12 11 13 16 20 22 23 26 29 32 34 34 33 32 31 29 26 23 20 18 16 15 15 13 10 9 10 10 10 10 11 11 10 11 11
2 2 3 4 4 4 3 3 5 6 6 4 3 2 3 5 4 3 4 5 7 3 3 7 11 9 9 11 10 10 12 16 20 22 23 27 31 33 34 34 33 33 32 29 26 23 20 18 17 16 15 12 10 9 9 9 9 10 10 10 10 11 11
3 2 2 4 4 3 3 4 6 9 7 4 3 2 4 6 5 4 5 5 5 2 0 4 5 5 6 9 8 9 12 17 21 23 26 28 31 32 33 33 33 33 32 29 25 21 19 19 18 15 13 11 9 8 9 10 10 10 10 9 10 10 11
3 2 2 3 4 6 3 1 1 4 6 9 7 5 6 7 6 3 4 5 4 4 5 6 6 5 6 8 8 9 13 18 20 22 26 27 29 31 32 32 32 32 30 27 22 20 19 19 17 15 14 12 10 9 10 10 10 10 9 9 10 10 11
2 3 3 4 6 4 1 2 0 1 2 5 5 3 4 7 7 6 6 8 8 8 8 7 8 9 10 11 12 12 13 16 18 20 23 25 27 30 31 31 31 30 27 24 21 20 20 20 18 17 15 14 12 12 11 10 10 10 10 10 10 11 12
2 4 5 4 2 1 1 1 2 3 4 4 1 4 6 7 8 8 8 10 10 7 7 7 7 7 7 9 11 11 9 11 15 17 19 21 25 29 30 29 27 25 23 21 20 20 20 20 19 18 17 15 14 14 12 9 10 11 11 11 11 12 13
1 3 4 2 2 1 3 2 3 3 3 3 3 5 5 5 6 8 8 9 7 4 4 4 4 2 2 4 7 7 6 7 10 13 15 18 23 27 26 23 21 20 19 19 19 20 20 20 20 19 17 16 16 16 13 10 10 11 12 12 12 13 14
1 2 2 2 3 3 4 4 3 2 2 3 4 3 4 3 7 11 10 7 5 3 3 4 5 3 2 2 2 4 5 5 8 11 13 17 23 25 22 20 19 19 19 18 18 19 19 20 21 20 18 17 17 17 14 11 11 12 13 13 12 13 14
3 3 3 4 5 3 3 5 1 2 4 7 6 3 6 3 8 14 13 7 6 6 6 7 7 4 3 3 1 3 4 4 7 11 14 18 22 20 18 17 18 17 17 17 17 18 20 22 22 21 20 19 20 20 16 12 12 14 13 12 12 12 13
4 4 4 3 3 2 3 4 1 4 8 9 4 5 6 3 9 16 16 12 11 10 10 10 7 4 4 2 2 3 5 6 7 11 14 18 19 18 16 16 16 16 15 16 18 19 21 24 24 22 21 21 22 22 18 14 14 15 13 11 10 12 14
4 5 4 2 2 3 3 3 2 8 9 6 5 6 3 4 11 15 17 17 15 14 16 14 7 4 3 3 3 5 8 10 11 13 15 17 17 15 15 15 15 16 17 18 19 20 22 24 24 24 23 22 23 23 19 17 16 14 12 10 11 14 16
2 3 3 1 2 2 1 3 7 9 6 4 5 4 2 6 13 15 16 18 15 15 20 18 10 7 7 7 7 10 12 13 14 15 15 16 16 15 15 15 15 17 19 20 21 21 23 24 25 26 25 23 23 23 21 20 17 14 12 12 13 15 17
2 1 2 2 2 0 4 7 7 4 4 3 2 3 5 9 14 15 17 18 16 16 20 19 14 12 11 10 11 13 14 13 13 14 14 14 14 15 15 16 17 18 20 21 21 22 24 24 25 27 26 23 23 24 23 21 17 14 13 14 15 17 19
2 2 3 2 1 2 5 6 3 6 11 7 6 8 8 10 14 17 18 19 18 17 19 20 19 16 14 13 13 13 13 12 12 13 13 13 13 14 15 16 18 19 20 22 22 24 24 24 25 27 25 23 23 24 24 21 18 16 16 16 18 19 20
2 2 2 2 3 5 7 10 13 17 20 18 15 15 14 15 16 17 19 20 18 18 19 21 22 19 16 14 12 11 11 11 11 12 12 12 13 13 14 16 17 19 21 23 24 25 25 25 26 26 23 21 22 23 23 21 19 18 18 19 20 21 20
2 4 5 5 7 10 11 12 15 20 24 24 22 20 20 20 19 18 18 18 15 17 19 20 20 19 16 13 10 10 10 10 10 10 10 10 11 12 13 15 17 19 21 23 24 25 25 26 27 25 21 20 21 21 20 20 19 18 19 21 22 22 21
1 2 2 2 9 13 14 14 13 15 18 19 18 18 19 19 17 13 12 12 12 15 17 17 17 17 14 12 11 11 10 10 9 9 9 9 10 12 14 16 18 20 21 22 23 24 24 25 25 22 19 19 20 19 18 19 19 20 22 22 21 21 20
2 2 2 11 18 16 12 13 13 11 11 11 11 11 11 10 9 8 9 9 12 15 14 13 16 16 13 11 12 11 10 9 9 9 9 9 10 12 13 15 17 18 20 21 21 22 22 22 20 18 18 19 19 18 18 19 20 21 23 22 20 20 19
3 1 4 15 18 9 7 13 14 8 5 5 5 5 7 9 9 9 9 9 11 13 12 12 14 15 13 12 11 10 9 9 8 8 8 8 9 10 11 13 15 16 18 19 20 20 20 18 16 15 16 17 18 18 19 20 20 21 21 20 19 19 17
1 1 6 11 9 5 11 19 18 8 4 3 3 4 7 9 8 7 8 10 10 11 12 12 13 14 13 12 10 9 8 8 7 7 6 6 7 9 11 12 14 15 16 16 16 16 16 15 13 13 15 17 18 19 20 19 19 20 20 20 19 18 17
3 4 7 9 5 8 15 22 19 11 7 5 6 6 7 9 7 7 9 11 13 14 13 12 12 12 11 10 10 9 8 6 5 4 5 6 8 10 13 14 15 15 15 14 13 13 12 12 12 13 15 17 18 19 18 18 18 19 20 19 18 18 18
5 5 10 13 12 13 20 26 21 13 11 9 8 8 9 10 9 9 10 12 13 14 14 12 12 11 10 9 9 7 6 4 4 5 7 9 10 12 14 15 15 14 13 12 11 11 11 11 12 13 15 16 16 17 17 17 18 19 19 18 18 18 18
7 11 17 21 21 21 25 28 21 12 11 11 9 8 8 9 9 9 10 11 12 12 12 13 13 12 11 9 8 6 5 5 6 8 9 10 11 12 13 14 14 13 12 11 11 11 12 12 13 14 14 15 15 15 15 16 17 17 17 18 18 18 19
Wind_Direction
133 174 134 85 113 152 137 171 178 155 49 116 123 104 64 57 226 169 180 248 259 276 261 209 247 258 240 228 222 216 210 198 191 194 201 204 205 203 201 200 200 200 204 208 210 212 215 219 232 253 260 256 253 258 266 275 287 295 299 303 307 312 319
89 123 123 90 30 39 163 183 154 132 87 62 108 154 115 181 238 186 177 249 263 288 265 173 220 243 229 212 210 206 199 193 194 198 202 205 205 203 202 202 202 202 205 208 208 210 215 222 237 251 250 245 249 259 268 277 287 294 299 304 306 311 318
116 148 156 113 62 23 35 143 134 140 201 163 118 185 173 202 247 208 182 257 263 226 225 218 223 230 218 198 197 199 197 197 198 199 202 206 206 204 204 204 204 204 205 207 207 207 215 223 233 239 237 239 249 261 269 278 287 294 299 301 305 310 315
151 197 219 183 130 62 65 122 128 347 319 139 142 122 192 231 229 211 196 241 244 215 208 228 234 224 195 185 192 202 203 202 202 200 201 204 206 206 205 205 205 205 205 206 204 205 214 221 226 230 231 237 249 261 272 281 288 293 297 299 303 308 311
201 193 205 203 169 130 142 161 158 145 100 99 176 122 59 276 189 186 236 251 255 207 182 217 234 223 186 186 194 204 207 206 206 204 203 205 206 207 207 206 206 205 204 203 201 202 212 217 221 226 229 236 248 263 276 283 288 291 294 296 300 304 308
194 189 20 283 222 154 162 182 184 166 137 140 186 182 164 292 222 190 227 268 273 165 169 222 239 233 201 198 197 201 207 207 208 210 210 209 209 209 209 208 206 204 202 201 199 202 211 217 221 225 228 237 250 266 278 283 287 290 292 294 297 301 305
207 357 12 332 287 357 105 155 183 157 143 165 196 214 190 152 155 98 94 276 275 114 149 240 250 256 237 215 205 204 207 208 210 213 213 213 213 213 211 209 206 204 202 200 199 203 213 219 222 226 231 238 252 268 279 283 286 288 289 293 296 299 302
48 35 45 76 61 172 182 94 138 167 170 151 167 194 159 157 176 157 159 253 259 120 138 249 252 246 246 233 219 213 211 209 211 213 213 214 215 215 213 210 206 203 201 200 200 205 213 219 223 227 232 239 256 271 278 281 284 286 289 293 295 296 299
134 152 167 157 181 214 210 138 135 167 122 106 108 102 117 205 199 163 206 249 257 103 124 263 249 230 238 237 227 221 219 213 210 211 213 214 214 214 213 210 205 202 202 201 201 206 214 219 223 228 231 241 258 271 278 279 283 287 289 292 294 295 298
178 191 197 196 183 175 167 145 156 164 140 142 142 115 165 225 192 158 216 249 269 35 288 264 233 228 243 237 225 224 225 222 215 212 213 212 212 213 211 207 203 201 202 202 202 208 215 219 224 226 228 238 253 267 278 282 285 287 289 292 294 295 296
191 189 183 186 138 151 166 170 164 163 153 147 131 129 199 197 151 187 221 244 290 278 266 268 239 227 241 237 222 219 220 222 220 218 216 212 211 212 209 204 201 200 202 203 205 210 216 219 221 221 224 234 246 260 279 287 286 286 288 291 294 295 294
202 88 109 103 171 160 164 162 162 164 157 157 168 189 192 136 149 239 224 165 246 262 259 269 261 239 242 241 228 222 221 221 219 217 214 211 210 210 206 202 200 200 202 204 206 212 217 219 218 218 224 233 240 255 280 289 285 284 288 289 292 294 291
109 65 100 238 139 123 135 155 163 165 167 180 194 194 150 155 209 271 141 153 221 253 265 274 272 251 244 252 249 242 233 223 215 210 207 206 206 205 203 201 199 201 204 205 208 213 217 217 216 218 229 233 238 256 283 290 284 281 285 287 291 291 290
103 89 69 167 121 115 114 138 157 164 171 186 202 188 164 190 242 292 127 203 242 252 255 267 274 274 268 268 265 251 231 217 210 206 203 202 202 202 202 201 200 203 207 207 209 215 217 216 215 222 230 231 238 262 284 286 280 276 280 286 289 290 292
101 64 60 76 89 110 125 134 144 148 149 168 200 204 171 200 261 280 243 250 263 249 232 255 271 278 273 262 251 235 219 211 206 202 199 199 202 204 203 200 201 205 207 207 211 215 216 214 215 224 229 230 241 265 280 281 272 269 275 283 288 289 292
146 55 65 94 87 92 130 183 200 181 166 174 197 189 176 193 223 235 231 261 275 256 207 249 265 266 256 248 235 219 213 211 206 201 200 201 204 205 203 200 202 206 206 207 211 214 214 213 216 222 225 228 245 266 276 270 259 262 272 280 285 287 288
148 93 104 121 121 154 195 227 210 189 182 182 161 163 206 209 205 214 237 260 279 298 235 258 262 248 246 251 239 219 217 215 212 210 209 208 208 206 202 199 202 206 206 208 212 214 213 214 216 220 222 229 247 261 263 256 251 260 270 274 280 285 285
151 125 118 133 190 214 196 87 193 182 183 186 181 187 207 204 200 223 267 279 273 257 241 248 264 270 268 266 259 249 236 224 218 216 214 213 210 206 201 200 204 206 206 209 214 216 215 216 217 218 222 230 242 248 250 251 252 259 265 269 277 283 284
125 123 146 188 215 222 96 59 76 74 119 165 185 234 234 218 219 230 256 263 256 251 245 245 259 272 278 277 275 275 258 234 224 219 215 213 211 206 201 201 205 206 206 211 216 216 216 217 216 218 223 229 236 239 243 248 252 256 263 269 276 282 283
126 151 182 206 239 306 316 240 156 109 81 103 166 272 257 233 223 215 232 250 253 253 252 246 250 265 285 288 280 277 263 234 223 220 216 211 207 202 200 202 205 206 208 213 217 218 219 219 218 221 226 230 233 235 238 246 253 257 262 269 276 282 283
167 175 190 225 321 291 216 196 161 169 172 150 184 259 260 227 205 193 211 245 251 244 245 230 213 214 279 290 274 262 248 221 213 218 218 211 201 197 199 204 205 207 212 216 219 222 223 223 224 226 229 230 232 233 235 244 253 255 259 267 275 280 283
155 176 189 227 253 235 214 220 206 189 202 145 148 237 258 231 209 203 211 239 238 200 199 188 162 147 187 242 243 223 219 206 198 207 212 205 197 195 200 204 205 210 215 218 222 225 227 229 230 230 230 230 231 235 237 243 251 253 257 265 273 281 286
159 193 212 215 226 231 223 231 211 115 159 139 125 243 263 238 213 211 212 223 215 195 186 172 161 170 209 200 173 202 205 188 185 194 198 194 192 194 201 206 209 214 218 222 226 228 232 237 235 232 231 230 230 237 241 243 249 253 256 267 279 284 285
163 191 210 218 236 253 242 262 357 127 159 149 147 259 268 222 210 209 204 208 212 198 179 168 174 213 217 167 153 189 169 154 166 179 184 187 189 195 202 206 211 217 219 224 229 234 243 247 242 235 233 230 232 239 243 246 250 255 260 272 282 280 278
164 195 219 247 253 243 263 300 104 140 153 166 215 248 267 196 205 203 199 209 215 197 182 179 185 202 174 136 152 166 153 152 162 167 175 186 193 200 206 208 213 217 221 226 235 244 252 253 249 243 238 233 236 241 244 247 253 258 263 272 276 275 277
146 190 224 262 265 263 353 89 120 141 165 210 224 245 280 215 206 201 201 211 215 200 191 189 177 152 141 136 146 155 156 161 166 169 178 189 196 204 209 212 218 224 229 234 242 250 255 254 253 251 245 239 240 243 245 250 257 260 261 266 270 273 280
121 148 198 237 278 323 126 126 120 149 211 252 326 315 270 228 212 209 211 215 214 204 196 189 170 146 139 142 149 156 163 169 174 181 189 197 205 211 214 220 229 234 237 242 247 252 255 257 257 257 253 247 244 245 247 252 258 258 256 260 266 272 281
181 177 178 180 97 102 158 176 206 223 219 237 314 320 282 247 226 218 219 221 217 206 196 185 169 152 145 148 152 160 170 177 185 195 203 210 216 221 226 233 239 242 244 248 251 253 256 260 261 262 259 252 247 247 249 253 256 255 254 256 261 270 278
215 231 252 282 305 298 269 256 258 253 247 254 277 293 288 270 249 232 226 225 216 204 196 185 172 164 161 160 160 167 177 185 195 203 209 216 222 228 235 241 245 249 252 254 256 258 262 264 267 268 263 253 250 251 251 252 255 256 254 253 258 266 274
281 274 268 276 289 295 294 282 266 263 265 267 272 278 276 268 260 247 234 227 212 197 193 187 178 177 180 177 174 176 182 189 196 202 209 218 227 235 242 247 252 256 260 262 264 266 268 269 273 274 265 255 256 256 251 251 256 257 253 250 255 264 271
309 269 211 312 312 303 301 301 289 275 273 271 268 268 265 260 257 244 225 215 200 187 186 188 186 181 179 179 179 180 184 188 192 202 214 223 232 240 245 251 256 260 265 269 270 271 272 274 276 274 265 257 256 252 248 252 257 255 249 247 255 265 271
281 249 23 345 329 310 293 300 303 290 280 273 261 255 249 237 217 194 183 184 183 179 179 186 189 184 178 180 183 181 183 187 194 208 219 227 237 245 250 256 261 265 268 270 270 271 273 274 274 269 260 254 249 245 247 255 258 252 245 247 259 268 268
272 223 11 353 344 330 312 322 321 302 271 273 259 227 198 178 167 164 166 168 175 180 180 182 187 189 187 184 183 182 186 195 206 216 227 239 249 258 266 271 274 275 273 270 269 269 270 271 269 262 252 246 243 245 254 259 256 249 247 254 263 264 262
278 62 17 0 348 297 304 323 325 307 249 232 225 199 178 173 172 174 178 176 176 182 187 186 187 189 187 183 184 191 199 209 219 229 243 262 275 284 289 289 285 281 275 271 269 269 270 269 262 251 243 241 246 254 259 258 253 249 252 259 262 259 257
287 332 355 353 324 276 301 321 323 305 272 229 204 203 198 194 201 213 207 195 183 179 182 183 182 183 185 186 191 200 206 213 226 246 268 283 289 291 290 288 284 281 278 277 276 275 274 267 255 247 245 249 256 260 259 255 252 253 258 262 260 257 256
273 314 342 341 328 312 319 327 325 302 273 250 225 219 212 204 206 213 213 206 194 183 176 175 179 184 189 191 193 196 200 213 241 261 271 276 280 282 282 282 283 285 288 290 288 284 279 271 264 261 262 266 269 266 260 256 256 258 263 264 261 259 260
305 318 326 325 320 314 317 323 326 310 278 265 258 246 226 210 205 204 203 203 199 191 186 187 190 191 191 190 190 194 205 227 246 257 266 273 277 279 279 280 284 289 293 295 293 291 287 283 280 279 279 278 276 269 263 261 262 265 269 271 270 270 270